Location: Nebraska Star Party
(42.6000°N, 100.8833°W)
Time: 02:35:14
(UTC-06:00)

Amateur Radio Satellites - All Passes

Search period start: 07 February 2016 02:05
Search period end: 08 February 2016 02:05
Location: Nebraska Star Party, 42.6000°N, 100.8833°W

Satellite Date Start Highest point End Downlink Frequencies (MHz)
Time Altitude Azimuth
YUBILEINY 07 Feb 02:12:48 02:15:48 12° 72° (ENE) 02:18:49 435.215
SWISSCUBE 07 Feb 02:14:40 02:19:20 59° 259° (W) 02:24:04 437.505
STARS 07 Feb 02:15:52 02:16:46 11° 59° (ENE) 02:17:39 437.465
BEESAT 3 07 Feb 02:16:33 02:19:37 21° 44° (NE) 02:22:38 437.485
TISAT 1 07 Feb 02:18:32 02:19:12 10° 271° (W) 02:19:52 437.305
KKS-1 07 Feb 02:21:07 02:24:32 22° 65° (ENE) 02:27:57 437.445
BEESAT 2 07 Feb 02:34:42 02:37:48 21° 44° (NE) 02:40:52 435.950
Oscar 19 07 Feb 02:39:50 02:44:56 64° 287° (WNW) 02:49:59 437.125/150
Gurwin Techsat 1B 07 Feb 02:43:54 02:49:07 54° 100° (E) 02:54:19 435.225
ITUPSAT 1 07 Feb 02:50:24 02:54:34 30° 264° (W) 02:58:46 437.325
PHONESAT 2.4 07 Feb 02:54:58 02:57:38 23° 156° (SSE) 03:00:18 2401.200-2431.200
BEESAT 07 Feb 03:01:37 03:05:22 23° 266° (W) 03:09:10 436.000
Cosmos 2491 07 Feb 03:10:49 03:19:35 77° 80° (E) 03:28:22 435.465 / 435.565
JAS-2 07 Feb 03:15:07 03:20:48 51° 291° (WNW) 03:25:57 435.910
MOZHAYETS 4 07 Feb 03:26:13 03:30:24 37° 70° (ENE) 03:34:37
CUSAT 1 07 Feb 03:32:18 03:39:56 54° 286° (WNW) 03:47:53 437.405
DANDE 07 Feb 03:37:42 03:45:09 77° 282° (WNW) 03:53:42 436.750
ITAMSAT 1 07 Feb 03:41:12 03:46:28 87° 284° (WNW) 03:51:43 435.822/435.867
STARS 07 Feb 03:48:02 03:52:27 86° 256° (WSW) 03:56:53 437.465
BEESAT 3 07 Feb 03:53:48 03:57:33 42° 243° (WSW) 04:01:17 437.485
Cosmos 2504 07 Feb 03:56:15 03:58:57 12° 71° (ENE) 04:01:39 435.465 / 435.565
KKS-1 07 Feb 03:56:42 04:00:53 38° 262° (W) 04:05:04 437.445
CUBESAT XI-V 07 Feb 04:02:07 04:02:35 10° 58° (ENE) 04:03:03 437.345
YUBILEINY 07 Feb 04:02:07 04:10:46 68° 93° (E) 04:19:30 435.215
AIST 2 07 Feb 04:04:10 04:07:19 20° 43° (NE) 04:10:27 435.215
BEESAT 2 07 Feb 04:12:06 04:15:53 42° 243° (WSW) 04:19:38 435.950
AO-7 07 Feb 04:21:48 04:29:59 56° 102° (ESE) 04:38:04 29.400- 29.500
Gurwin Techsat 1B 07 Feb 04:24:43 04:28:40 22° 298° (WNW) 04:32:37 435.225
PHONESAT 2.4 07 Feb 04:31:22 04:34:35 54° 173° (S) 04:37:48 2401.200-2431.200
M-CUBED/EXP-1 PRIME 07 Feb 05:02:23 05:05:43 72° 108° (ESE) 05:09:11 437.505
MOZHAYETS 4 07 Feb 05:04:09 05:07:41 22° 267° (W) 05:11:15
SO-50 07 Feb 05:06:29 05:09:09 15° 108° (ESE) 05:11:51 436.795
Cosmos 2491 07 Feb 05:09:07 05:15:27 23° 281° (W) 05:21:48 435.465 / 435.565
HORYU 2 07 Feb 05:13:42 05:18:10 75° 103° (ESE) 05:22:36 437.375
AUBIESAT-1 07 Feb 05:15:05 05:18:28 86° 108° (ESE) 05:22:01 437.475
CUSAT 1 07 Feb 05:20:58 05:24:05 12° 306° (NW) 05:27:12 437.405
ITAMSAT 1 07 Feb 05:22:57 05:25:09 13° 303° (WNW) 05:27:19 435.822/435.867
DANDE 07 Feb 05:24:25 05:29:40 19° 303° (WNW) 05:35:13 436.750
CUBESAT XI-V 07 Feb 05:34:29 05:39:10 83° 75° (ENE) 05:43:54 437.345
Cosmos 2504 07 Feb 05:42:03 05:50:23 64° 92° (E) 05:59:08 435.465 / 435.565
AIST 2 07 Feb 05:42:05 05:46:04 47° 242° (WSW) 05:50:01 435.215
YUBILEINY 07 Feb 06:01:01 06:08:17 28° 294° (WNW) 06:15:38 435.215
PHONESAT 2.4 07 Feb 06:08:31 06:11:43 50° 190° (S) 06:14:54 2401.200-2431.200
AO-7 07 Feb 06:15:03 06:22:25 37° 302° (WNW) 06:29:44 29.400- 29.500
CUTE-I 07 Feb 06:35:14 06:40:15 39° 98° (E) 06:45:15 437.470
STRAND 1 07 Feb 06:35:52 06:40:47 50° 71° (ENE) 06:45:44 437.568
SO-50 07 Feb 06:44:09 06:49:03 74° 305° (NW) 06:54:01 436.795
Cubesat XI-IV 07 Feb 06:47:49 06:53:04 50° 100° (E) 06:58:16 437.490
LilacSat-2 07 Feb 06:49:19 06:52:58 44° 99° (E) 06:56:35 437.200
BRITE-PL 07 Feb 06:50:10 06:54:20 28° 93° (E) 06:58:11 437.365/2234.400
HORYU 2 07 Feb 06:52:23 06:54:07 12° 300° (WNW) 06:55:52 437.375
PRISM 07 Feb 06:57:52 07:01:12 24° 67° (ENE) 07:04:34 437.425
CUBESAT XI-V 07 Feb 07:16:48 07:17:10 10° 273° (W) 07:17:31 437.345
Cosmos 2504 07 Feb 07:37:04 07:44:24 31° 293° (WNW) 07:52:01 435.465 / 435.565
PHONESAT 2.4 07 Feb 07:46:10 07:48:37 20° 206° (SSW) 07:51:04 2401.200-2431.200
HO-68 07 Feb 07:58:43 08:04:19 24° 92° (E) 08:09:54 435.675
O/OREOS (USA 219) 07 Feb 07:58:59 08:01:00 13° 98° (E) 08:03:03 437.305
CANX-2 07 Feb 08:06:11 08:09:19 19° 93° (E) 08:12:27 2200.000
DOVE 4 07 Feb 08:08:20 08:12:27 43° 98° (E) 08:16:25 437.250
GOMX 1 07 Feb 08:11:38 08:16:13 85° 280° (W) 08:20:29 467.674
CUTE-I 07 Feb 08:15:34 08:20:09 29° 295° (WNW) 08:24:43 437.470
STRAND 1 07 Feb 08:16:29 08:20:13 20° 267° (W) 08:24:00 437.568
LilacSat-2 07 Feb 08:24:59 08:26:55 14° 295° (WNW) 08:28:52 437.200
SO-50 07 Feb 08:27:30 08:30:25 15° 325° (NW) 08:33:19 436.795
BRITE-PL 07 Feb 08:28:31 08:32:49 31° 293° (WNW) 08:36:49 437.365/2234.400
Cubesat XI-IV 07 Feb 08:28:37 08:32:46 23° 297° (WNW) 08:36:56 437.490
PRISM 07 Feb 08:32:45 08:36:25 30° 263° (W) 08:40:06 437.425
CUTE 1.7 + AOD 2 07 Feb 08:56:33 09:00:48 62° 101° (E) 09:05:03 437.475
COMPASS 1 07 Feb 08:59:50 09:03:46 36° 97° (E) 09:07:41 437.405
Cosmos 2499 07 Feb 09:03:37 09:08:36 17° 75° (ENE) 09:13:38 435.465 / 435.565
SEEDS 07 Feb 09:08:19 09:12:33 63° 100° (E) 09:16:46 437.485
ANTELSAT 07 Feb 09:15:50 09:18:46 18° 65° (ENE) 09:21:41 437.575/2403.000
TIGRISAT 07 Feb 09:23:28 09:26:40 21° 66° (ENE) 09:29:51 435.000
ZACube-1 07 Feb 09:24:48 09:27:45 18° 93° (E) 09:30:42 437.345
CINEMA 3 07 Feb 09:24:56 09:29:06 79° 283° (WNW) 09:33:15 145.822/145.860
GONETS M04 07 Feb 09:26:56 09:35:17 55° 90° (E) 09:43:41
AAUSAT CUBESAT 2 07 Feb 09:31:16 09:35:29 69° 102° (ESE) 09:39:40 437.432
DELFI C3 07 Feb 09:34:58 09:37:31 16° 92° (E) 09:40:04 145.870
FUNcube-1 07 Feb 09:35:10 09:38:29 22° 94° (E) 09:41:51 145.935
O/OREOS (USA 219) 07 Feb 09:35:24 09:39:50 62° 296° (WNW) 09:44:19 437.305
CANX-2 07 Feb 09:41:21 09:45:19 37° 289° (WNW) 09:49:16 2200.000
HO-68 07 Feb 09:45:25 09:52:34 67° 291° (WNW) 09:59:40 435.675
DOVE 4 07 Feb 09:47:00 09:49:50 17° 296° (WNW) 09:52:35 437.250
CUBEBUG 2 07 Feb 09:52:03 09:56:13 73° 103° (ESE) 10:00:26 437.445
POPSAT HIP 1 07 Feb 09:52:49 09:53:58 11° 61° (ENE) 09:55:07 437.405
NANOSAT C BR1 07 Feb 09:58:42 10:00:31 13° 62° (ENE) 10:02:19 145.865
UWE-3 07 Feb 09:59:10 10:03:19 63° 101° (E) 10:07:32 435.000/436.395/437.385
DUCHIFAT 1 07 Feb 10:01:24 10:03:17 13° 62° (ENE) 10:05:09 145.980
QB50P1 07 Feb 10:04:21 10:06:46 15° 63° (ENE) 10:09:10 145.935-145.965
UNISAT 6 07 Feb 10:05:44 10:10:01 60° 74° (ENE) 10:14:15 437.425
HUMSAT D 07 Feb 10:09:31 10:12:14 17° 92° (E) 10:14:57 437.325/437.525
Oscar 11 07 Feb 10:12:05 10:16:27 80° 102° (ESE) 10:20:48 145.826/435.025
AIST 1 07 Feb 10:23:26 10:25:17 12° 83° (E) 10:27:07
CUTE 1.7 + AOD 2 07 Feb 10:34:05 10:36:09 13° 297° (WNW) 10:38:13 437.475
COMPASS 1 07 Feb 10:36:01 10:39:07 20° 294° (WNW) 10:42:13 437.405
SEEDS 07 Feb 10:45:48 10:47:45 13° 297° (WNW) 10:49:42 437.485
ANTELSAT 07 Feb 10:51:03 10:55:11 43° 261° (W) 10:59:18 437.575/2403.000
Cosmos 2499 07 Feb 10:51:36 11:00:14 81° 95° (E) 11:09:10 435.465 / 435.565
POLYITAN 1 07 Feb 10:53:43 10:57:49 49° 72° (ENE) 11:01:55 437.675
QB50P2 07 Feb 10:54:30 10:58:37 52° 73° (ENE) 11:02:45 145.880/145.840
TIGRISAT 07 Feb 10:59:07 11:03:09 37° 262° (W) 11:07:08 435.000
ZACube-1 07 Feb 11:00:18 11:04:12 38° 288° (WNW) 11:08:08 437.345
VELOX 1 07 Feb 11:04:29 11:06:32 13° 90° (E) 11:08:34 145.980
DELFI C3 07 Feb 11:08:49 11:12:38 41° 288° (WNW) 11:16:26 145.870
AAUSAT CUBESAT 2 07 Feb 11:08:54 11:10:25 12° 298° (WNW) 11:11:56 437.432
FUNcube-1 07 Feb 11:11:05 11:14:47 31° 290° (WNW) 11:18:31 145.935
BUGSAT 1 07 Feb 11:13:17 11:17:13 39° 71° (ENE) 11:21:08 437.445
AISAT 07 Feb 11:19:36 11:22:52 20° 93° (E) 11:26:06 437.250
GONETS M04 07 Feb 11:24:47 11:32:27 34° 291° (WNW) 11:40:12
POPSAT HIP 1 07 Feb 11:24:54 11:29:09 76° 257° (WSW) 11:33:24 437.405
ESTCUBE 1 07 Feb 11:29:19 11:33:15 28° 96° (E) 11:37:09 437.505/2401.250
PCSat 07 Feb 11:30:32 11:35:27 37° 111° (ESE) 11:40:25 145.827
CUBEBUG 2 07 Feb 11:31:16 11:32:17 11° 298° (WNW) 11:33:17 437.445
NANOSAT C BR1 07 Feb 11:31:31 11:35:44 65° 259° (WSW) 11:39:57 145.865
DUCHIFAT 1 07 Feb 11:34:17 11:38:29 63° 259° (W) 11:42:40 145.980
HO-68 07 Feb 11:35:27 11:38:58 14° 310° (NW) 11:42:28 435.675
UWE-3 07 Feb 11:37:33 11:39:19 12° 297° (WNW) 11:41:05 435.000/436.395/437.385
QB50P1 07 Feb 11:37:58 11:42:08 53° 260° (W) 11:46:17 145.935-145.965
AO-85 07 Feb 11:43:23 11:48:42 72° 121° (ESE) 11:54:13 145.980
HUMSAT D 07 Feb 11:44:09 11:48:04 41° 288° (WNW) 11:52:00 437.325/437.525
JAS-2 07 Feb 11:44:23 11:48:38 16° 56° (NE) 11:52:42 435.910
UNISAT 6 07 Feb 11:45:18 11:47:07 12° 270° (W) 11:48:55 437.425
CUBEBUG 1 07 Feb 11:47:20 11:51:15 31° 96° (E) 11:55:07 437.445
UKube-1 07 Feb 11:48:06 11:52:04 34° 98° (E) 11:56:00 .
Oscar 11 07 Feb 11:50:49 11:51:56 11° 299° (WNW) 11:53:04 145.826/435.025
DX 1 07 Feb 11:54:44 11:58:59 48° 100° (E) 12:03:11 434.975-435.025
50 SAT 07 Feb 11:55:45 11:59:31 60° 101° (E) 12:03:16 437.505
AIST 1 07 Feb 11:57:59 12:02:19 58° 280° (W) 12:06:41
RS-15 07 Feb 12:01:29 12:11:56 50° 110° (ESE) 12:22:53 29.354- 29.394
SPROUT 07 Feb 12:03:13 12:05:59 17° 92° (E) 12:08:44 437.525
Oscar 19 07 Feb 12:19:10 12:23:25 26° 65° (ENE) 12:27:40 437.125/150
CUSAT 1 07 Feb 12:28:41 12:33:26 21° 61° (ENE) 12:37:23 437.405
Gurwin Techsat 1B 07 Feb 12:29:23 12:31:48 13° 58° (ENE) 12:34:13 435.225
POLYITAN 1 07 Feb 12:31:32 12:33:55 15° 269° (W) 12:36:18 437.675
QB50P2 07 Feb 12:32:31 12:34:45 14° 269° (W) 12:37:00 145.880/145.840
DANDE 07 Feb 12:37:34 12:42:38 19° 57° (ENE) 12:47:02 436.750
VELOX 1 07 Feb 12:39:02 12:43:24 60° 287° (WNW) 12:47:44 145.980
Cosmos 2499 07 Feb 12:47:39 12:54:25 24° 297° (WNW) 13:01:19 435.465 / 435.565
BUGSAT 1 07 Feb 12:49:50 12:52:45 18° 267° (W) 12:55:41 437.445
AISAT 07 Feb 12:55:23 12:59:30 39° 290° (WNW) 13:03:35 437.250
ESTCUBE 1 07 Feb 13:06:04 13:10:01 29° 292° (WNW) 13:13:56 437.505/2401.250
PCSat 07 Feb 13:13:55 13:18:51 35° 310° (NW) 13:23:50 145.827
ITAMSAT 1 07 Feb 13:22:16 13:26:04 21° 62° (ENE) 13:29:53 435.822/435.867
CUBEBUG 1 07 Feb 13:23:51 13:27:24 25° 293° (WNW) 13:30:55 437.445
UKube-1 07 Feb 13:24:33 13:27:55 22° 294° (WNW) 13:31:17 .
JAS-2 07 Feb 13:24:57 13:32:40 75° 73° (ENE) 13:39:47 435.910
AO-85 07 Feb 13:25:27 13:29:48 24° 320° (NW) 13:34:12 145.980
DX 1 07 Feb 13:31:58 13:34:48 17° 297° (WNW) 13:37:36 434.975-435.025
50 SAT 07 Feb 13:32:00 13:33:03 11° 297° (WNW) 13:34:06 437.505
AO-7 07 Feb 13:32:30 13:37:59 20° 48° (NE) 13:43:29 29.400- 29.500
SO-50 07 Feb 13:35:28 13:39:06 20° 39° (NE) 13:42:38 436.795
SPROUT 07 Feb 13:38:08 13:42:11 43° 288° (WNW) 13:46:12 437.525
Oscar 19 07 Feb 13:57:38 14:02:31 41° 262° (W) 14:07:26 437.125/150
TISAT 1 07 Feb 13:57:47 14:01:58 71° 285° (WNW) 14:06:06 437.305
Gurwin Techsat 1B 07 Feb 14:05:38 14:10:57 89° 76° (ENE) 14:16:19 435.225
CUSAT 1 07 Feb 14:10:17 14:16:27 55° 267° (W) 14:21:05 437.405
YUBILEINY 07 Feb 14:11:43 14:19:39 35° 69° (ENE) 14:27:28 435.215
RS-15 07 Feb 14:13:21 14:24:16 55° 315° (NW) 14:35:53 29.354- 29.394
SWISSCUBE 07 Feb 14:14:17 14:18:37 33° 97° (E) 14:22:56 437.505
DANDE 07 Feb 14:19:22 14:26:56 84° 261° (W) 14:32:40 436.750
Cosmos 2491 07 Feb 14:20:34 14:25:35 17° 76° (ENE) 14:30:37 435.465 / 435.565
AUBIESAT-1 07 Feb 14:31:39 14:32:03 10° 59° (ENE) 14:32:26 437.475
ITUPSAT 1 07 Feb 14:49:19 14:54:08 66° 102° (ESE) 14:58:55 437.325
BEESAT 07 Feb 14:59:39 15:04:28 85° 105° (ESE) 15:09:16 436.000
ITAMSAT 1 07 Feb 15:00:05 15:05:08 53° 260° (W) 15:10:15 435.822/435.867
JAS-2 07 Feb 15:12:19 15:18:07 23° 269° (W) 15:23:41 435.910
SO-50 07 Feb 15:15:18 15:20:06 69° 239° (WSW) 15:24:43 436.795
AO-7 07 Feb 15:21:08 15:29:29 78° 69° (ENE) 15:37:52 29.400- 29.500
Cosmos 2504 07 Feb 15:34:56 15:41:52 25° 64° (ENE) 15:48:27 435.465 / 435.565
STARS 07 Feb 15:38:01 15:40:46 16° 92° (E) 15:43:29 437.465
KKS-1 07 Feb 15:46:45 15:50:52 37° 98° (E) 15:54:57 437.445
Gurwin Techsat 1B 07 Feb 15:50:01 15:51:37 11° 272° (W) 15:53:12 435.225
M-CUBED/EXP-1 PRIME 07 Feb 15:50:15 15:54:00 71° 253° (WSW) 15:57:30 437.505
SWISSCUBE 07 Feb 15:52:13 15:56:19 28° 293° (WNW) 16:00:23 437.505
AUBIESAT-1 07 Feb 16:02:34 16:06:15 61° 253° (WSW) 16:09:43 437.475
DANDE 07 Feb 16:04:59 16:08:14 14° 285° (WNW) 16:11:12 436.750
YUBILEINY 07 Feb 16:08:15 16:16:47 55° 270° (W) 16:25:15 435.215
HORYU 2 07 Feb 16:12:14 16:16:38 75° 75° (ENE) 16:21:03 437.375
Cosmos 2491 07 Feb 16:12:19 16:21:02 85° 97° (E) 16:29:48 435.465 / 435.565
ITUPSAT 1 07 Feb 16:28:38 16:31:26 16° 299° (WNW) 16:34:14 437.325
RS-15 07 Feb 16:31:00 16:40:16 26° 347° (NNW) 16:49:54 29.354- 29.394
Cubesat XI-IV 07 Feb 16:34:16 16:36:35 13° 57° (ENE) 16:38:55 437.490
BEESAT 07 Feb 16:39:41 16:41:34 12° 301° (WNW) 16:43:27 436.000
MOZHAYETS 4 07 Feb 16:57:00 17:01:40 82° 103° (ESE) 17:06:18
ISS 07 Feb 17:01:02 17:04:00 33° 138° (SE) 17:06:58 145.825
STARS 07 Feb 17:13:11 17:17:24 47° 288° (WNW) 17:21:34 437.465
AO-7 07 Feb 17:16:43 17:23:02 23° 268° (W) 17:29:23 29.400- 29.500
KKS-1 07 Feb 17:23:49 17:27:13 22° 295° (WNW) 17:30:37 437.445
Cosmos 2504 07 Feb 17:27:29 17:36:11 74° 266° (W) 17:44:17 435.465 / 435.565
CUBESAT XI-V 07 Feb 17:31:15 17:34:43 20° 92° (E) 17:38:10 437.345
LilacSat-2 07 Feb 17:32:24 17:35:34 25° 69° (ENE) 17:38:44 437.200
GOMX 1 07 Feb 17:43:55 17:47:00 16° 62° (ENE) 17:50:02 467.674
BEESAT 3 07 Feb 17:45:51 17:49:08 25° 114° (ESE) 17:52:26 437.485
HORYU 2 07 Feb 17:53:05 17:53:43 10° 271° (W) 17:54:22 437.375
CUTE-I 07 Feb 17:57:41 18:02:57 68° 73° (ENE) 18:08:16 437.470
BRITE-PL 07 Feb 18:00:07 18:05:23 40° 69° (ENE) 18:10:34 437.365/2234.400
BEESAT 2 07 Feb 18:05:17 18:08:39 26° 114° (ESE) 18:12:02 435.950
O/OREOS (USA 219) 07 Feb 18:05:38 18:09:42 30° 59° (ENE) 18:13:45 437.305
Cubesat XI-IV 07 Feb 18:10:31 18:15:50 87° 82° (E) 18:21:14 437.490
Cosmos 2491 07 Feb 18:12:46 18:19:03 21° 298° (WNW) 18:25:22 435.465 / 435.565
HO-68 07 Feb 18:29:14 18:34:17 21° 55° (NE) 18:39:22 435.675
AO-85 07 Feb 18:35:41 18:38:53 16° 33° (NNE) 18:41:59 145.980
MOZHAYETS 4 07 Feb 18:36:30 18:38:10 12° 300° (WNW) 18:39:50
ISS 07 Feb 18:37:25 18:40:26 35° 335° (NNW) 18:43:28 145.825
STRAND 1 07 Feb 18:46:52 18:50:00 16° 91° (E) 18:53:06 437.568
RS-15 07 Feb 18:47:54 18:58:00 30° 22° (NNE) 19:08:20 29.354- 29.394
CINEMA 3 07 Feb 18:53:19 18:54:47 11° 62° (ENE) 18:56:15 145.822/145.860
CANX-2 07 Feb 19:00:26 19:03:00 16° 64° (ENE) 19:05:35 2200.000
LilacSat-2 07 Feb 19:06:47 19:09:51 23° 265° (W) 19:12:57 437.200
CUBESAT XI-V 07 Feb 19:07:50 19:12:18 43° 289° (WNW) 19:16:44 437.345
DOVE 4 07 Feb 19:13:29 19:18:28 52° 73° (ENE) 19:23:15 437.250
GOMX 1 07 Feb 19:19:02 19:24:29 78° 258° (WSW) 19:29:46 467.674
BEESAT 3 07 Feb 19:23:11 19:26:47 32° 311° (NW) 19:30:24 437.485
Cosmos 2504 07 Feb 19:23:56 19:27:51 14° 287° (WNW) 19:31:41 435.465 / 435.565
GONETS M04 07 Feb 19:36:26 19:43:47 28° 66° (ENE) 19:51:06
BRITE-PL 07 Feb 19:38:52 19:43:51 31° 266° (W) 19:48:49 437.365/2234.400
CUTE-I 07 Feb 19:40:20 19:43:30 16° 270° (W) 19:46:41 437.470
AIST 2 07 Feb 19:40:23 19:43:59 28° 114° (ESE) 19:47:35 435.215
BEESAT 2 07 Feb 19:42:51 19:46:27 31° 312° (NW) 19:50:05 435.950
O/OREOS (USA 219) 07 Feb 19:45:06 19:49:02 29° 256° (WSW) 19:52:58 437.305
CUTE 1.7 + AOD 2 07 Feb 19:49:48 19:53:49 46° 72° (ENE) 19:57:53 437.475
COMPASS 1 07 Feb 19:51:36 19:55:06 27° 69° (ENE) 19:58:38 437.405
Cubesat XI-IV 07 Feb 19:54:45 19:56:37 12° 272° (W) 19:58:29 437.490
SEEDS 07 Feb 20:00:40 20:04:38 46° 73° (ENE) 20:08:40 437.485
PRISM 07 Feb 20:13:25 20:17:14 33° 97° (E) 20:21:01 437.425
HO-68 07 Feb 20:13:58 20:21:09 84° 254° (WSW) 20:28:24 435.675
AO-85 07 Feb 20:15:12 20:20:26 73° 55° (NE) 20:25:11 145.980
ISS 07 Feb 20:15:22 20:17:34 17° 355° (N) 20:19:47 145.825
PCSat 07 Feb 20:17:20 20:22:22 37° 51° (NE) 20:27:21 145.827
ZACube-1 07 Feb 20:21:59 20:24:40 17° 65° (ENE) 20:27:19 437.345
AAUSAT CUBESAT 2 07 Feb 20:22:09 20:26:07 48° 73° (ENE) 20:30:08 437.432
DELFI C3 07 Feb 20:23:38 20:24:53 11° 62° (ENE) 20:26:07 145.870
STRAND 1 07 Feb 20:24:30 20:29:37 64° 287° (WNW) 20:34:42 437.568
CINEMA 3 07 Feb 20:26:38 20:31:21 82° 258° (WSW) 20:35:52 145.822/145.860
FUNcube-1 07 Feb 20:31:55 20:34:59 20° 66° (ENE) 20:38:02 145.935
CANX-2 07 Feb 20:34:26 20:38:29 48° 261° (W) 20:42:35 2200.000
Cosmos 2499 07 Feb 20:43:18 20:50:41 31° 67° (ENE) 20:57:35 435.465 / 435.565
CUBEBUG 2 07 Feb 20:50:36 20:54:56 66° 75° (ENE) 20:59:09 437.445
DOVE 4 07 Feb 20:52:46 20:56:23 19° 268° (W) 20:59:56 437.250
UWE-3 07 Feb 20:56:44 21:00:55 55° 74° (ENE) 21:05:03 435.000/436.395/437.385
RS-15 07 Feb 21:01:05 21:13:14 69° 51° (NE) 21:25:32 29.354- 29.394
HUMSAT D 07 Feb 21:02:40 21:04:41 13° 63° (ENE) 21:06:42 437.325/437.525
Oscar 11 07 Feb 21:07:13 21:11:28 66° 74° (ENE) 21:15:45 145.826/435.025
AIST 2 07 Feb 21:18:42 21:22:25 31° 312° (NW) 21:26:10 435.215
COMPASS 1 07 Feb 21:27:12 21:30:38 25° 265° (W) 21:34:07 437.405
CUTE 1.7 + AOD 2 07 Feb 21:27:26 21:29:55 15° 269° (W) 21:32:26 437.475
GONETS M04 07 Feb 21:32:36 21:41:17 67° 268° (W) 21:49:59
SEEDS 07 Feb 21:38:11 21:40:37 15° 269° (W) 21:43:05 437.485
PRISM 07 Feb 21:49:09 21:52:23 22° 294° (WNW) 21:55:35 437.425
ISS 07 Feb 21:52:15 21:54:52 22° 16° (NNE) 21:57:30 145.825
DELFI C3 07 Feb 21:55:19 21:59:15 64° 260° (W) 22:03:13 145.870
ZACube-1 07 Feb 21:56:34 22:00:38 45° 261° (W) 22:04:40 437.345
AO-85 07 Feb 21:57:29 22:00:11 15° 254° (WSW) 22:02:47 145.980
UNISAT 6 07 Feb 21:58:47 22:00:13 11° 90° (E) 22:01:38 437.425
AAUSAT CUBESAT 2 07 Feb 21:59:40 22:01:55 14° 269° (W) 22:04:09 437.432
PCSat 07 Feb 22:00:49 22:05:43 35° 249° (WSW) 22:10:35 145.827
VELOX 1 07 Feb 22:02:48 22:05:09 14° 62° (ENE) 22:07:32 145.980
AIST 1 07 Feb 22:04:28 22:08:29 35° 76° (ENE) 22:12:27
HO-68 07 Feb 22:06:09 22:09:52 15° 272° (W) 22:13:37 435.675
FUNcube-1 07 Feb 22:07:08 22:11:02 36° 263° (W) 22:14:54 145.935
AISAT 07 Feb 22:17:53 22:21:14 21° 65° (ENE) 22:24:34 437.250
ESTCUBE 1 07 Feb 22:29:33 22:33:26 29° 68° (ENE) 22:37:20 437.505/2401.250
CUBEBUG 2 07 Feb 22:30:39 22:31:58 11° 270° (W) 22:33:16 437.445
UWE-3 07 Feb 22:35:41 22:37:43 13° 269° (W) 22:39:43 435.000/436.395/437.385
HUMSAT D 07 Feb 22:35:53 22:39:53 54° 260° (W) 22:43:54 437.325/437.525
Cosmos 2499 07 Feb 22:36:03 22:44:20 58° 269° (W) 22:51:58 435.465 / 435.565
50 SAT 07 Feb 22:36:55 22:40:13 31° 71° (ENE) 22:43:33 437.505
ANTELSAT 07 Feb 22:41:46 22:45:43 34° 97° (E) 22:49:42 437.575/2403.000
UKube-1 07 Feb 22:43:19 22:47:12 32° 69° (ENE) 22:51:05 .
CUBEBUG 1 07 Feb 22:43:56 22:47:46 30° 68° (ENE) 22:51:38 437.445
Oscar 11 07 Feb 22:46:42 22:48:03 11° 271° (W) 22:49:24 145.826/435.025
TIGRISAT 07 Feb 22:49:25 22:53:28 38° 98° (E) 22:57:33 435.000
DX 1 07 Feb 22:50:43 22:54:54 46° 71° (ENE) 22:59:07 434.975-435.025
SPROUT 07 Feb 22:58:14 23:00:45 15° 63° (ENE) 23:03:17 437.525
POPSAT HIP 1 07 Feb 23:10:16 23:12:55 16° 92° (E) 23:15:32 437.405
RS-15 07 Feb 23:14:17 23:25:01 39° 254° (WSW) 23:35:52 29.354- 29.394
NANOSAT C BR1 07 Feb 23:16:14 23:19:10 18° 93° (E) 23:22:06 145.865
DUCHIFAT 1 07 Feb 23:18:43 23:21:40 19° 93° (E) 23:24:37 145.980
QB50P1 07 Feb 23:22:36 23:25:56 22° 94° (E) 23:29:13 145.935-145.965
ISS 07 Feb 23:28:25 23:31:40 90° 200° (SSW) 23:34:55 145.825
UNISAT 6 07 Feb 23:33:04 23:37:21 66° 286° (WNW) 23:41:42 437.425
GONETS M04 07 Feb 23:33:24 23:36:17 12° 288° (WNW) 23:39:12
VELOX 1 07 Feb 23:36:42 23:41:07 63° 258° (WSW) 23:45:34 145.980
AIST 1 07 Feb 23:42:40 23:45:50 20° 273° (W) 23:48:57
AISAT 07 Feb 23:53:14 23:57:27 40° 262° (W) 00:01:41 437.250
ESTCUBE 1 08 Feb 00:06:16 00:10:11 29° 264° (W) 00:14:09 437.505/2401.250
50 SAT 08 Feb 00:11:50 00:14:21 17° 267° (W) 00:16:51 437.505
POLYITAN 1 08 Feb 00:13:35 00:17:48 86° 103° (ESE) 00:22:01 437.675
QB50P2 08 Feb 00:14:22 00:18:35 90° 46° (NE) 00:22:48 145.880/145.840
ANTELSAT 08 Feb 00:18:53 00:22:16 23° 293° (WNW) 00:25:41 437.575/2403.000
UKube-1 08 Feb 00:19:49 00:23:17 23° 265° (W) 00:26:47 .
CUBEBUG 1 08 Feb 00:20:17 00:24:02 27° 265° (W) 00:27:49 437.445
ITUPSAT 1 08 Feb 00:23:38 00:24:20 10° 57° (ENE) 00:25:02 437.325
TIGRISAT 08 Feb 00:26:47 00:29:56 20° 294° (WNW) 00:33:06 435.000
DX 1 08 Feb 00:28:29 00:31:20 17° 268° (W) 00:34:12 434.975-435.025
BUGSAT 1 08 Feb 00:29:34 00:33:35 60° 101° (ESE) 00:37:32 437.445
BEESAT 08 Feb 00:32:03 00:34:12 13° 60° (ENE) 00:36:21 436.000
SPROUT 08 Feb 00:32:07 00:36:19 52° 260° (W) 00:40:33 437.525
POPSAT HIP 1 08 Feb 00:44:56 00:48:55 43° 289° (WNW) 00:52:54 437.405
TISAT 1 08 Feb 00:49:47 00:54:02 89° 256° (WSW) 00:58:17 437.305
NANOSAT C BR1 08 Feb 00:51:11 00:55:05 38° 289° (WNW) 00:58:57 145.865
DUCHIFAT 1 08 Feb 00:53:39 00:57:32 37° 289° (WNW) 01:01:22 145.980
QB50P1 08 Feb 00:58:01 01:01:45 31° 291° (WNW) 01:05:28 145.935-145.965
ISS 08 Feb 01:06:47 01:07:39 11° 230° (SW) 01:08:30 145.825
SWISSCUBE 08 Feb 01:21:21 01:25:47 41° 70° (ENE) 01:30:16 437.505
CUSAT 1 08 Feb 01:30:05 01:36:36 30° 85° (E) 01:43:18 437.405
DANDE 08 Feb 01:45:27 01:51:07 23° 81° (E) 01:57:15 436.750
